QPF
0.00 0.00 0.00 0.00 0.00 0.00 0.00 0.00 0.00 0.00 0.00 0.00 0.00 0.00 0.00 0.00 0.00 0.00 0.00 0.00 0.00 0.00 0.00 0.00 0.00 0.00 0.00 0.00 0.00 0.00 0.00 0.00 0.01 0.01 0.01 0.01 0.01 0.01 0.01 0.01 0.01 0.01 0.01 0.01
0.00 0.00 0.00 0.00 0.00 0.00 0.00 0.00 0.00 0.00 0.00 0.00 0.00 0.00 0.00 0.00 0.00 0.00 0.00 0.00 0.00 0.00 0.00 0.00 0.00 0.00 0.00 0.00 0.00 0.00 0.00 0.00 0.00 0.01 0.01 0.02 0.02 0.02 0.02 0.01 0.01 0.01 0.01 0.02
0.00 0.00 0.00 0.00 0.00 0.00 0.00 0.00 0.00 0.00 0.00 0.00 0.00 0.01 0.00 0.00 0.00 0.00 0.00 0.00 0.00 0.00 0.00 0.00 0.00 0.00 0.00 0.00 0.00 0.00 0.00 0.00 0.00 0.00 0.01 0.01 0.02 0.03 0.02 0.02 0.01 0.01 0.01 0.01
0.00 0.00 0.00 0.00 0.00 0.00 0.00 0.00 0.00 0.00 0.00 0.00 0.00 0.00 0.00 0.00 0.00 0.00 0.00 0.00 0.00 0.00 0.00 0.00 0.00 0.00 0.00 0.00 0.00 0.00 0.00 0.00 0.00 0.01 0.01 0.01 0.01 0.02 0.02 0.02 0.01 0.01 0.01 0.01
0.00 0.00 0.00 0.00 0.00 0.00 0.00 0.00 0.00 0.00 0.01 0.01 0.01 0.01 0.00 0.00 0.00 0.00 0.00 0.00 0.00 0.00 0.00 0.00 0.00 0.00 0.00 0.00 0.00 0.00 0.00 0.00 0.01 0.01 0.01 0.01 0.02 0.02 0.02 0.02 0.01 0.01 0.01 0.01
0.00 0.00 0.00 0.00 0.00 0.00 0.00 0.00 0.00 0.00 0.01 0.01 0.00 0.00 0.00 0.00 0.00 0.00 0.00 0.00 0.00 0.00 0.00 0.00 0.00 0.00 0.00 0.00 0.00 0.00 0.00 0.00 0.01 0.01 0.01 0.01 0.02 0.02 0.02 0.02 0.02 0.01 0.01 0.01
0.00 0.00 0.00 0.00 0.00 0.00 0.00 0.01 0.01 0.01 0.01 0.00 0.00 0.00 0.01 0.01 0.01 0.01 0.00 0.00 0.00 0.00 0.00 0.00 0.00 0.00 0.00 0.00 0.00 0.00 0.00 0.00 0.01 0.01 0.01 0.02 0.02 0.03 0.03 0.02 0.01 0.01 0.01 0.01
0.00 0.00 0.00 0.00 0.00 0.01 0.01 0.01 0.01 0.01 0.00 0.00 0.00 0.01 0.01 0.00 0.00 0.00 0.00 0.00 0.00 0.00 0.00 0.00 0.00 0.00 0.00 0.00 0.00 0.00 0.00 0.01 0.01 0.01 0.01 0.02 0.03 0.03 0.03 0.02 0.01 0.01 0.01 0.01
0.00 0.00 0.00 0.00 0.00 0.00 0.01 0.01 0.01 0.01 0.01 0.00 0.00 0.01 0.00 0.00 0.00 0.00 0.00 0.00 0.00 0.00 0.00 0.00 0.00 0.00 0.00 0.00 0.00 0.00 0.01 0.01 0.01 0.01 0.01 0.02 0.03 0.03 0.03 0.02 0.01 0.01 0.01 0.01
0.00 0.00 0.00 0.00 0.00 0.00 0.00 0.01 0.01 0.01 0.01 0.01 0.00 0.00 0.01 0.00 0.01 0.00 0.00 0.00 0.00 0.00 0.00 0.00 0.00 0.00 0.00 0.00 0.00 0.01 0.01 0.01 0.02 0.02 0.02 0.03 0.03 0.03 0.03 0.02 0.02 0.01 0.01 0.01
0.00 0.00 0.00 0.00 0.00 0.00 0.00 0.00 0.01 0.01 0.01 0.01 0.01 0.01 0.01 0.01 0.01 0.00 0.00 0.00 0.00 0.00 0.00 0.00 0.00 0.00 0.00 0.00 0.00 0.01 0.01 0.02 0.02 0.02 0.03 0.03 0.03 0.02 0.02 0.02 0.01 0.01 0.01 0.01
0.00 0.01 0.01 0.01 0.00 0.00 0.00 0.00 0.00 0.01 0.01 0.02 0.02 0.01 0.01 0.01 0.01 0.00 0.00 0.00 0.00 0.00 0.00 0.00 0.00 0.00 0.00 0.00 0.01 0.01 0.02 0.02 0.02 0.03 0.03 0.03 0.02 0.02 0.02 0.01 0.01 0.01 0.01 0.00
0.01 0.02 0.02 0.01 0.00 0.00 0.00 0.00 0.00 0.01 0.02 0.02 0.02 0.02 0.01 0.01 0.01 0.01 0.00 0.00 0.00 0.01 0.01 0.00 0.00 0.00 0.00 0.01 0.01 0.01 0.02 0.02 0.02 0.03 0.03 0.02 0.02 0.01 0.01 0.01 0.01 0.01 0.01 0.00
0.02 0.03 0.02 0.01 0.01 0.01 0.00 0.00 0.00 0.01 0.02 0.02 0.02 0.02 0.02 0.02 0.01 0.01 0.01 0.01 0.01 0.01 0.01 0.01 0.01 0.01 0.01 0.01 0.01 0.02 0.02 0.02 0.02 0.02 0.02 0.02 0.01 0.01 0.01 0.01 0.01 0.01 0.01 0.00
0.01 0.02 0.01 0.01 0.01 0.01 0.01 0.00 0.00 0.01 0.01 0.02 0.02 0.01 0.02 0.02 0.03 0.02 0.02 0.02 0.02 0.02 0.02 0.02 0.02 0.01 0.02 0.02 0.02 0.02 0.02 0.02 0.02 0.01 0.01 0.01 0.01 0.01 0.01 0.01 0.01 0.01 0.01 0.01
0.01 0.01 0.01 0.01 0.00 0.01 0.01 0.00 0.00 0.00 0.00 0.01 0.01 0.02 0.02 0.03 0.02 0.02 0.02 0.03 0.03 0.03 0.02 0.02 0.02 0.02 0.01 0.02 0.02 0.02 0.02 0.02 0.01 0.01 0.01 0.01 0.01 0.01 0.01 0.01 0.00 0.01 0.01 0.01
0.01 0.01 0.01 0.01 0.00 0.01 0.01 0.01 0.01 0.01 0.01 0.01 0.01 0.01 0.01 0.01 0.01 0.01 0.01 0.02 0.02 0.02 0.01 0.02 0.02 0.01 0.01 0.02 0.02 0.02 0.02 0.02 0.01 0.01 0.01 0.01 0.00 0.00 0.00 0.01 0.01 0.01 0.01 0.01
0.01 0.01 0.02 0.02 0.01 0.01 0.01 0.01 0.01 0.01 0.01 0.01 0.01 0.01 0.01 0.01 0.01 0.01 0.01 0.01 0.01 0.01 0.01 0.02 0.01 0.01 0.02 0.02 0.02 0.02 0.02 0.02 0.01 0.01 0.01 0.01 0.01 0.00 0.00 0.01 0.01 0.01 0.01 0.01
0.01 0.02 0.03 0.03 0.02 0.01 0.01 0.01 0.01 0.01 0.01 0.01 0.01 0.01 0.01 0.01 0.01 0.01 0.01 0.01 0.01 0.01 0.01 0.01 0.01 0.02 0.02 0.02 0.02 0.02 0.02 0.02 0.02 0.01 0.01 0.01 0.01 0.00 0.01 0.01 0.01 0.01 0.01 0.01
0.01 0.02 0.03 0.03 0.02 0.01 0.01 0.01 0.01 0.01 0.01 0.01 0.01 0.01 0.01 0.01 0.01 0.01 0.01 0.01 0.01 0.01 0.01 0.01 0.02 0.02 0.02 0.02 0.02 0.02 0.02 0.02 0.01 0.01 0.01 0.00 0.00 0.01 0.01 0.01 0.01 0.01 0.01 0.01
0.01 0.02 0.03 0.03 0.03 0.01 0.01 0.01 0.01 0.01 0.02 0.01 0.01 0.01 0.01 0.01 0.01 0.01 0.01 0.01 0.01 0.01 0.01 0.01 0.01 0.01 0.01 0.01 0.01 0.02 0.02 0.01 0.01 0.01 0.01 0.01 0.01 0.01 0.01 0.01 0.01 0.01 0.01 0.01
0.01 0.02 0.02 0.02 0.02 0.01 0.01 0.01 0.01 0.02 0.01 0.01 0.01 0.01 0.01 0.01 0.01 0.01 0.00 0.01 0.01 0.01 0.01 0.01 0.01 0.01 0.01 0.01 0.01 0.01 0.01 0.01 0.01 0.01 0.01 0.01 0.01 0.01 0.01 0.01 0.01 0.01 0.01 0.01
0.01 0.02 0.02 0.02 0.02 0.01 0.01 0.01 0.01 0.01 0.01 0.01 0.01 0.00 0.01 0.01 0.01 0.00 0.00 0.00 0.01 0.01 0.01 0.01 0.01 0.01 0.01 0.01 0.01 0.01 0.01 0.01 0.01 0.01 0.01 0.01 0.01 0.01 0.01 0.01 0.02 0.02 0.01 0.01
0.01 0.01 0.02 0.01 0.01 0.01 0.01 0.01 0.01 0.01 0.01 0.01 0.01 0.01 0.01 0.01 0.01 0.01 0.00 0.01 0.01 0.01 0.01 0.01 0.00 0.00 0.00 0.01 0.01 0.01 0.01 0.01 0.01 0.01 0.01 0.01 0.01 0.01 0.01 0.02 0.02 0.02 0.01 0.01
0.01 0.01 0.01 0.01 0.01 0.00 0.00 0.01 0.01 0.01 0.01 0.01 0.01 0.01 0.01 0.01 0.01 0.01 0.00 0.00 0.01 0.00 0.00 0.00 0.00 0.00 0.00 0.00 0.01 0.01 0.01 0.01 0.01 0.01 0.01 0.01 0.01 0.01 0.01 0.01 0.01 0.02 0.01 0.02
0.01 0.01 0.01 0.01 0.01 0.01 0.01 0.01 0.01 0.01 0.01 0.01 0.01 0.01 0.01 0.01 0.01 0.01 0.01 0.00 0.00 0.00 0.00 0.00 0.00 0.00 0.00 0.00 0.00 0.01 0.01 0.01 0.01 0.01 0.01 0.01 0.01 0.01 0.01 0.01 0.01 0.02 0.01 0.02
MSLP
1018.02 1018.36 1018.67 1018.92 1019.13 1019.31 1019.51 1019.79 1020.18 1020.73 1021.45 1022.33 1023.32 1024.36 1025.39 1026.32 1027.12 1027.74 1028.18 1028.46 1028.61 1028.67 1028.69 1028.69 1028.70 1028.71 1028.70 1028.67 1028.59 1028.46 1028.27 1028.04 1027.79 1027.54 1027.30 1027.08 1026.88 1026.69 1026.50 1026.29 1026.04 1025.77 1025.48 1025.18
1018.42 1018.84 1019.22 1019.55 1019.83 1020.11 1020.41 1020.79 1021.29 1021.93 1022.73 1023.65 1024.65 1025.66 1026.62 1027.45 1028.12 1028.60 1028.90 1029.05 1029.09 1029.07 1029.04 1029.01 1029.00 1029.00 1029.00 1028.97 1028.90 1028.77 1028.58 1028.36 1028.13 1027.89 1027.68 1027.48 1027.30 1027.11 1026.91 1026.68 1026.40 1026.08 1025.74 1025.40
1018.96 1019.46 1019.94 1020.37 1020.76 1021.14 1021.55 1022.03 1022.62 1023.33 1024.16 1025.07 1026.02 1026.95 1027.78 1028.48 1029.00 1029.34 1029.51 1029.55 1029.51 1029.44 1029.36 1029.31 1029.29 1029.29 1029.28 1029.25 1029.17 1029.05 1028.87 1028.67 1028.47 1028.26 1028.08 1027.92 1027.76 1027.59 1027.38 1027.13 1026.81 1026.44 1026.04 1025.63
1019.64 1020.25 1020.83 1021.37 1021.87 1022.37 1022.88 1023.44 1024.07 1024.79 1025.59 1026.44 1027.29 1028.08 1028.77 1029.32 1029.70 1029.91 1029.99 1029.96 1029.88 1029.78 1029.69 1029.64 1029.61 1029.59 1029.57 1029.53 1029.44 1029.31 1029.15 1028.97 1028.80 1028.64 1028.49 1028.36 1028.23 1028.07 1027.85 1027.56 1027.20 1026.77 1026.30 1025.81
1020.44 1021.14 1021.82 1022.46 1023.06 1023.65 1024.23 1024.84 1025.48 1026.17 1026.90 1027.63 1028.33 1028.97 1029.50 1029.90 1030.17 1030.30 1030.32 1030.27 1030.19 1030.10 1030.03 1029.98 1029.95 1029.93 1029.89 1029.81 1029.71 1029.57 1029.41 1029.25 1029.10 1028.98 1028.87 1028.76 1028.64 1028.48 1028.24 1027.91 1027.49 1027.00 1026.45 1025.88
1021.27 1022.04 1022.79 1023.51 1024.19 1024.84 1025.46 1026.08 1026.70 1027.32 1027.93 1028.52 1029.06 1029.54 1029.92 1030.21 1030.39 1030.48 1030.50 1030.48 1030.44 1030.40 1030.37 1030.35 1030.32 1030.28 1030.21 1030.11 1029.98 1029.82 1029.65 1029.50 1029.37 1029.26 1029.16 1029.07 1028.94 1028.74 1028.46 1028.09 1027.61 1027.04 1026.42 1025.78
1022.01 1022.82 1023.61 1024.38 1025.11 1025.79 1026.44 1027.04 1027.61 1028.14 1028.63 1029.07 1029.46 1029.79 1030.05 1030.25 1030.39 1030.49 1030.56 1030.60 1030.64 1030.67 1030.70 1030.70 1030.68 1030.63 1030.53 1030.39 1030.22 1030.04 1029.86 1029.70 1029.56 1029.44 1029.34 1029.21 1029.05 1028.80 1028.47 1028.02 1027.48 1026.86 1026.19 1025.50
1022.58 1023.38 1024.19 1024.98 1025.73 1026.44 1027.09 1027.67 1028.18 1028.63 1029.00 1029.32 1029.58 1029.79 1029.97 1030.13 1030.27 1030.40 1030.54 1030.67 1030.80 1030.91 1030.99 1031.03 1031.01 1030.94 1030.81 1030.63 1030.42 1030.21 1030.00 1029.82 1029.65 1029.51 1029.35 1029.17 1028.94 1028.62 1028.20 1027.69 1027.09 1026.43 1025.73 1025.02
1022.92 1023.70 1024.50 1025.29 1026.06 1026.78 1027.44 1028.01 1028.48 1028.86 1029.15 1029.37 1029.54 1029.68 1029.81 1029.95 1030.12 1030.30 1030.51 1030.73 1030.94 1031.12 1031.24 1031.30 1031.27 1031.18 1031.01 1030.80 1030.55 1030.30 1030.06 1029.84 1029.63 1029.43 1029.20 1028.93 1028.60 1028.18 1027.68 1027.10 1026.45 1025.77 1025.07 1024.39
1023.09 1023.83 1024.61 1025.41 1026.19 1026.93 1027.60 1028.16 1028.62 1028.97 1029.22 1029.38 1029.50 1029.60 1029.71 1029.86 1030.05 1030.28 1030.55 1030.83 1031.08 1031.30 1031.44 1031.49 1031.45 1031.32 1031.12 1030.87 1030.59 1030.31 1030.03 1029.76 1029.50 1029.21 1028.89 1028.51 1028.06 1027.54 1026.94 1026.29 1025.62 1024.93 1024.27 1023.64
1023.21 1023.92 1024.68 1025.48 1026.28 1027.04 1027.73 1028.32 1028.78 1029.12 1029.35 1029.50 1029.60 1029.69 1029.79 1029.94 1030.15 1030.40 1030.69 1030.99 1031.25 1031.46 1031.58 1031.60 1031.53 1031.36 1031.13 1030.84 1030.54 1030.23 1029.91 1029.59 1029.25 1028.87 1028.44 1027.94 1027.37 1026.74 1026.06 1025.35 1024.66 1023.99 1023.38 1022.82
1023.45 1024.15 1024.90 1025.70 1026.51 1027.29 1028.01 1028.61 1029.09 1029.44 1029.68 1029.82 1029.92 1030.00 1030.10 1030.24 1030.44 1030.68 1030.95 1031.22 1031.44 1031.60 1031.67 1031.64 1031.52 1031.31 1031.04 1030.73 1030.41 1030.07 1029.71 1029.34 1028.93 1028.45 1027.91 1027.29 1026.60 1025.86 1025.10 1024.36 1023.66 1023.02 1022.46 1021.97
1024.00 1024.68 1025.43 1026.23 1027.03 1027.82 1028.53 1029.14 1029.63 1029.98 1030.22 1030.36 1030.45 1030.52 1030.60 1030.72 1030.89 1031.09 1031.30 1031.50 1031.65 1031.73 1031.73 1031.63 1031.44 1031.19 1030.89 1030.56 1030.21 1029.85 1029.46 1029.03 1028.54 1027.98 1027.33 1026.60 1025.81 1024.98 1024.16 1023.38 1022.67 1022.06 1021.54 1021.09
1024.94 1025.61 1026.35 1027.11 1027.89 1028.64 1029.32 1029.90 1030.36 1030.69 1030.91 1031.04 1031.11 1031.16 1031.22 1031.30 1031.41 1031.55 1031.68 1031.79 1031.85 1031.85 1031.75 1031.58 1031.34 1031.04 1030.71 1030.35 1029.98 1029.59 1029.16 1028.67 1028.11 1027.46 1026.72 1025.90 1025.01 1024.11 1023.24 1022.43 1021.72 1021.11 1020.61 1020.17
1026.27 1026.93 1027.61 1028.32 1029.02 1029.68 1030.28 1030.78 1031.18 1031.46 1031.64 1031.73 1031.78 1031.80 1031.83 1031.87 1031.92 1031.99 1032.04 1032.07 1032.04 1031.94 1031.77 1031.53 1031.23 1030.89 1030.52 1030.13 1029.73 1029.30 1028.82 1028.27 1027.64 1026.90 1026.08 1025.17 1024.22 1023.26 1022.35 1021.51 1020.78 1020.16 1019.63 1019.17
1027.90 1028.50 1029.10 1029.70 1030.27 1030.80 1031.26 1031.64 1031.93 1032.13 1032.25 1032.31 1032.33 1032.32 1032.32 1032.33 1032.34 1032.35 1032.34 1032.29 1032.19 1032.02 1031.78 1031.48 1031.13 1030.75 1030.34 1029.91 1029.45 1028.97 1028.42 1027.80 1027.08 1026.27 1025.37 1024.40 1023.39 1022.39 1021.44 1020.58 1019.81 1019.15 1018.58 1018.05
1029.60 1030.12 1030.60 1031.04 1031.44 1031.79 1032.09 1032.32 1032.49 1032.59 1032.65 1032.67 1032.66 1032.65 1032.64 1032.64 1032.64 1032.62 1032.57 1032.48 1032.32 1032.10 1031.81 1031.46 1031.07 1030.63 1030.17 1029.68 1029.15 1028.58 1027.95 1027.23 1026.43 1025.53 1024.56 1023.53 1022.48 1021.45 1020.47 1019.58 1018.77 1018.06 1017.40 1016.77
1031.15 1031.56 1031.89 1032.15 1032.36 1032.51 1032.63 1032.71 1032.75 1032.77 1032.78 1032.77 1032.77 1032.78 1032.80 1032.81 1032.82 1032.80 1032.74 1032.63 1032.45 1032.19 1031.87 1031.47 1031.03 1030.53 1029.99 1029.41 1028.79 1028.11 1027.37 1026.55 1025.64 1024.66 1023.62 1022.54 1021.46 1020.40 1019.40 1018.47 1017.62 1016.84 1016.09 1015.36
1032.36 1032.63 1032.80 1032.88 1032.91 1032.88 1032.84 1032.79 1032.74 1032.71 1032.70 1032.71 1032.74 1032.80 1032.86 1032.92 1032.96 1032.96 1032.91 1032.79 1032.59 1032.31 1031.94 1031.50 1030.99 1030.41 1029.78 1029.10 1028.35 1027.55 1026.67 1025.73 1024.72 1023.65 1022.54 1021.42 1020.31 1019.24 1018.22 1017.27 1016.37 1015.52 1014.69 1013.85
1033.13 1033.28 1033.30 1033.23 1033.10 1032.94 1032.78 1032.65 1032.56 1032.52 1032.53 1032.59 1032.69 1032.82 1032.95 1033.06 1033.14 1033.17 1033.12 1032.99 1032.77 1032.45 1032.03 1031.52 1030.93 1030.26 1029.51 1028.70 1027.83 1026.88 1025.87 1024.80 1023.68 1022.53 1021.36 1020.20 1019.08 1017.99 1016.97 1016.00 1015.07 1014.17 1013.27 1012.35
1033.47 1033.53 1033.45 1033.28 1033.05 1032.81 1032.61 1032.45 1032.38 1032.38 1032.45 1032.59 1032.77 1032.97 1033.17 1033.33 1033.44 1033.47 1033.41 1033.24 1032.97 1032.59 1032.09 1031.50 1030.81 1030.03 1029.17 1028.22 1027.21 1026.13 1024.99 1023.81 1022.59 1021.37 1020.16 1018.97 1017.84 1016.75 1015.73 1014.75 1013.81 1012.88 1011.94 1010.96
1033.52 1033.53 1033.40 1033.18 1032.92 1032.68 1032.48 1032.37 1032.36 1032.44 1032.60 1032.83 1033.09 1033.36 1033.60 1033.78 1033.88 1033.88 1033.77 1033.54 1033.18 1032.71 1032.12 1031.42 1030.62 1029.72 1028.74 1027.67 1026.53 1025.34 1024.09 1022.81 1021.53 1020.25 1019.01 1017.82 1016.68 1015.61 1014.60 1013.63 1012.68 1011.74 1010.77 1009.77
1033.44 1033.45 1033.33 1033.13 1032.90 1032.71 1032.58 1032.55 1032.62 1032.80 1033.05 1033.36 1033.69 1033.99 1034.24 1034.41 1034.46 1034.39 1034.19 1033.85 1033.38 1032.79 1032.08 1031.27 1030.35 1029.34 1028.25 1027.08 1025.84 1024.56 1023.24 1021.90 1020.58 1019.28 1018.03 1016.84 1015.72 1014.67 1013.67 1012.72 1011.78 1010.84 1009.87 1008.86
1033.41 1033.47 1033.40 1033.27 1033.12 1033.01 1032.98 1033.04 1033.21 1033.48 1033.81 1034.17 1034.52 1034.83 1035.05 1035.15 1035.11 1034.94 1034.61 1034.14 1033.54 1032.82 1031.98 1031.05 1030.02 1028.91 1027.73 1026.49 1025.19 1023.86 1022.50 1021.15 1019.82 1018.53 1017.29 1016.13 1015.03 1014.00 1013.03 1012.09 1011.16 1010.22 1009.25 1008.24
1033.57 1033.70 1033.71 1033.67 1033.62 1033.61 1033.68 1033.84 1034.08 1034.41 1034.78 1035.15 1035.49 1035.76 1035.90 1035.91 1035.76 1035.46 1034.99 1034.38 1033.64 1032.79 1031.83 1030.79 1029.67 1028.49 1027.25 1025.97 1024.64 1023.30 1021.95 1020.61 1019.30 1018.04 1016.85 1015.72 1014.65 1013.66 1012.70 1011.78 1010.85 1009.91 1008.94 1007.92
1033.95 1034.16 1034.27 1034.32 1034.37 1034.45 1034.59 1034.81 1035.11 1035.45 1035.82 1036.17 1036.46 1036.64 1036.70 1036.60 1036.33 1035.89 1035.30 1034.56 1033.69 1032.72 1031.67 1030.54 1029.36 1028.13 1026.86 1025.56 1024.25 1022.92 1021.61 1020.32 1019.06 1017.86 1016.71 1015.62 1014.60 1013.63 1012.69 1011.77 1010.84 1009.89 1008.90 1007.85
Thickness
5554 5546 5541 5541 5541 5544 5537 5529 5527 5527 5522 5518 5514 5516 5518 5516 5513 5511 5509 5507 5507 5508 5509 5507 5506 5505 5504 5503 5502 5501 5500 5500 5500 5499 5499 5499 5500 5501 5502 5503 5504 5506 5508 5511
5538 5532 5534 5534 5531 5529 5524 5517 5513 5514 5510 5507 5501 5504 5507 5505 5502 5500 5497 5494 5494 5495 5495 5494 5493 5491 5490 5489 5489 5488 5487 5487 5486 5486 5486 5485 5486 5486 5487 5488 5490 5493 5495 5497
5531 5524 5525 5524 5520 5517 5511 5506 5504 5502 5497 5491 5489 5495 5498 5495 5489 5487 5484 5482 5481 5482 5481 5480 5479 5477 5475 5475 5474 5474 5473 5472 5471 5471 5470 5471 5471 5472 5472 5474 5476 5478 5480 5482
5509 5511 5514 5512 5508 5508 5505 5499 5496 5490 5481 5473 5476 5477 5490 5482 5477 5475 5469 5466 5466 5466 5466 5465 5464 5462 5461 5460 5459 5458 5457 5457 5456 5456 5456 5456 5456 5456 5457 5459 5461 5462 5465 5467
5498 5497 5500 5499 5495 5493 5487 5483 5479 5473 5463 5455 5454 5455 5472 5463 5462 5461 5456 5452 5451 5450 5450 5450 5449 5448 5446 5444 5443 5442 5441 5441 5441 5441 5441 5441 5440 5441 5441 5443 5445 5447 5449 5452
5486 5485 5483 5483 5480 5478 5471 5466 5458 5447 5443 5448 5448 5442 5458 5448 5451 5450 5444 5440 5436 5434 5433 5433 5432 5431 5429 5427 5426 5426 5426 5425 5425 5425 5425 5426 5425 5425 5426 5427 5430 5432 5434 5436
5480 5476 5471 5470 5469 5464 5461 5455 5448 5445 5431 5441 5432 5431 5443 5442 5437 5434 5430 5425 5421 5418 5417 5416 5414 5413 5413 5412 5411 5410 5410 5410 5410 5410 5410 5410 5410 5411 5412 5414 5415 5417 5418 5420
5469 5466 5458 5454 5456 5452 5445 5448 5445 5440 5431 5427 5418 5420 5431 5427 5421 5417 5413 5409 5407 5404 5402 5401 5399 5398 5397 5396 5396 5395 5395 5394 5394 5394 5394 5394 5395 5396 5397 5399 5401 5402 5404 5406
5453 5452 5444 5443 5440 5441 5434 5427 5426 5413 5400 5400 5407 5402 5412 5413 5409 5404 5399 5396 5392 5390 5388 5386 5384 5383 5382 5381 5380 5380 5380 5379 5379 5378 5379 5379 5379 5381 5382 5384 5386 5387 5388 5390
5440 5433 5431 5428 5430 5424 5422 5412 5403 5402 5404 5404 5399 5392 5404 5407 5403 5394 5387 5383 5380 5377 5374 5371 5369 5368 5366 5366 5365 5364 5364 5364 5363 5364 5364 5365 5365 5366 5367 5369 5370 5372 5373 5375
5426 5421 5416 5414 5410 5410 5404 5401 5395 5386 5386 5387 5385 5399 5401 5396 5391 5383 5376 5372 5367 5363 5360 5357 5355 5352 5351 5351 5350 5349 5349 5348 5348 5349 5349 5350 5350 5351 5353 5354 5356 5357 5358 5360
5409 5402 5397 5398 5396 5394 5393 5390 5383 5388 5376 5359 5361 5385 5391 5381 5376 5370 5365 5362 5356 5352 5347 5344 5341 5338 5337 5336 5335 5335 5334 5334 5334 5334 5335 5335 5336 5337 5338 5339 5341 5342 5344 5346
5396 5391 5392 5395 5388 5378 5376 5372 5368 5365 5357 5346 5354 5380 5376 5366 5362 5358 5353 5350 5346 5341 5336 5331 5328 5325 5323 5322 5321 5321 5321 5320 5320 5321 5321 5321 5322 5323 5324 5326 5327 5328 5330 5331
5390 5378 5386 5394 5393 5376 5366 5363 5355 5353 5348 5344 5349 5368 5370 5363 5355 5349 5344 5339 5334 5330 5326 5322 5318 5314 5312 5310 5309 5308 5308 5308 5308 5308 5308 5309 5309 5310 5311 5312 5313 5315 5316 5317
5376 5367 5362 5364 5366 5362 5362 5360 5350 5346 5350 5349 5358 5353 5360 5354 5345 5339 5334 5329 5326 5323 5319 5315 5310 5306 5302 5300 5299 5298 5297 5297 5296 5296 5296 5296 5297 5297 5298 5299 5300 5301 5302 5303
5357 5353 5348 5350 5354 5349 5349 5350 5346 5344 5341 5338 5340 5344 5345 5337 5330 5326 5323 5322 5319 5316 5312 5307 5303 5298 5294 5292 5290 5289 5287 5286 5285 5284 5285 5285 5285 5285 5285 5286 5286 5287 5287 5288
5341 5338 5339 5341 5336 5339 5342 5347 5341 5335 5331 5331 5335 5341 5329 5324 5322 5317 5314 5313 5309 5306 5303 5299 5294 5289 5286 5283 5282 5279 5277 5275 5274 5273 5273 5273 5273 5273 5273 5273 5273 5273 5273 5273
5329 5325 5322 5322 5325 5330 5353 5337 5334 5330 5327 5320 5322 5321 5317 5314 5309 5304 5301 5299 5297 5295 5292 5288 5285 5282 5278 5275 5272 5270 5267 5265 5264 5263 5263 5262 5262 5261 5261 5260 5260 5259 5259 5259
5323 5320 5312 5310 5312 5322 5335 5329 5319 5318 5323 5316 5312 5310 5305 5299 5298 5299 5295 5290 5286 5283 5280 5276 5274 5271 5268 5266 5263 5261 5258 5256 5254 5253 5253 5252 5251 5250 5249 5248 5247 5246 5246 5246
5308 5308 5304 5298 5306 5316 5333 5319 5311 5313 5315 5313 5303 5299 5293 5290 5294 5295 5288 5281 5276 5272 5269 5266 5263 5261 5258 5256 5253 5251 5248 5246 5244 5243 5243 5242 5240 5239 5238 5237 5236 5235 5234 5234
5299 5294 5294 5293 5296 5308 5315 5305 5305 5309 5315 5304 5294 5290 5283 5279 5281 5278 5274 5270 5266 5263 5260 5257 5254 5251 5248 5246 5244 5241 5238 5237 5235 5234 5233 5232 5230 5229 5228 5227 5225 5224 5224 5223
5297 5291 5287 5285 5289 5306 5303 5295 5299 5301 5293 5288 5283 5279 5274 5270 5268 5266 5263 5259 5257 5253 5250 5247 5244 5242 5239 5237 5234 5231 5229 5228 5226 5225 5223 5222 5221 5219 5219 5217 5215 5214 5213 5212
5290 5295 5293 5295 5305 5300 5288 5288 5285 5281 5279 5276 5272 5269 5264 5261 5258 5257 5253 5248 5245 5243 5240 5238 5235 5233 5230 5227 5225 5222 5221 5219 5217 5215 5214 5213 5211 5210 5209 5207 5206 5205 5203 5203
5284 5281 5283 5283 5290 5285 5279 5275 5273 5270 5268 5266 5263 5259 5255 5251 5249 5245 5242 5239 5235 5233 5231 5228 5226 5223 5221 5218 5216 5214 5213 5211 5209 5207 5205 5204 5202 5201 5200 5198 5198 5197 5195 5194
5281 5272 5273 5276 5278 5276 5276 5270 5267 5264 5260 5257 5255 5250 5247 5243 5240 5235 5232 5228 5225 5224 5221 5219 5216 5214 5212 5210 5207 5206 5204 5202 5200 5198 5196 5195 5194 5193 5192 5191 5189 5189 5188 5187
5267 5265 5269 5280 5275 5268 5270 5266 5260 5256 5253 5250 5246 5243 5238 5234 5230 5226 5222 5219 5216 5214 5212 5209 5207 5205 5203 5200 5198 5197 5195 5193 5191 5190 5189 5187 5186 5185 5184 5183 5182 5182 5181 5181